Tracking 30995 objects as of 5-Jul-2025
HD Live streaming from Space Station
objects crossing your sky now

STARLINK-31058

Track STARLINK-31058 now!
10-day predictions
STARLINK-31058 is classified as:


NORAD ID: 58677
Int'l Code: 2023-211L
Perigee: 489.2 km
Apogee: 491.3 km
Inclination: 43.0 °
Period: 94.3 minutes
Semi major axis: 6861 km
RCS: Unknown
Launch date: December 29, 2023
Source: United States (US)
Launch site: AIR FORCE EASTERN TEST RANGE (AFETR)
Your satellite tracking list
Your tracking list is empty




NASA's NSSDC Master Catalog

Two Line Element Set (TLE):
1 58677U 23211L   25186.63691666  .00001947  00000-0  80321-4 0  9996
2 58677  43.0092  40.2798 0001557 269.8461  90.2212 15.27550785 84684
Source of the keplerian elements: AFSPC